Travis Air Force Base, CA

10:51 PM PST on February 13, 2016 (GMT -0800)
Travis Air Force Base

Weather History for KSUU - November, 2012

Change the Weather History Date:

Thursday, November 29, 2012

  Actual Average Record
Temperature  
Mean Temperature 56 °F -  
Max Temperature 61 °F 57 °F 68 °F (2013)
Min Temperature 51 °F 40 °F 25 °F (2015)
Degree Days  
Heating Degree Days 9    
Growing Degree Days 6 (Base 50)    
Moisture  
Dew Point 56 °F    
Average Humidity 95    
Maximum Humidity 100    
Minimum Humidity 75    
Precipitation  
Precipitation 0.08 in - - ()
Sea Level Pressure  
Sea Level Pressure 29.94 in    
Wind  
Wind Speed 12 mph (SSE)    
Max Wind Speed 22 mph    
Max Gust Speed 22 mph    
Visibility 8 miles    
Events Rain    
Averages and records for this station are not official NWS values.
T = Trace of Precipitation, MM = Missing Value Source: NWS Daily Summary

Daily Weather History Graph

Daily Weather History Graph

Search for Another Location

Airport or City:

Trip Planner

Search our weather history database for the weather conditions in past years. The results will help you decide how hot, cold, wet, or windy it might be!

Date:

Astronomy

Nov. 29, 2012 Rise Set
Actual Time 7:04 AM PST 4:48 PM PST
Civil Twilight 6:35 AM PST 5:17 PM PST
Nautical Twilight 6:02 AM PST 5:49 PM PST
Astronomical Twilight 5:30 AM PST 6:21 PM PST
Moon 5:55 PM PST (11/29) 7:55 AM PST (11/29)
Length of Visible Light 10h 42m
Length of Day
9h 43m
Full, 99% of the Moon is Illuminated
Nov 29
Full
Dec 6
Last Quarter
Dec 13
New
Dec 19
First Quarter
Dec 28
Full

Hourly Weather History & Observations

Time (PST) Temp. Dew Point Humidity Pressure Visibility Wind Dir Wind Speed Gust Speed Precip Events Conditions
12:58 AM 54.5 °F 51.1 °F 88% 30.05 in 10.0 mi South 10.4 mph - N/A   Clear
1:58 AM 51.1 °F 50.9 °F 99% 30.06 in 10.0 mi South 6.9 mph - N/A   Mostly Cloudy
2:58 AM 52.3 °F 52.0 °F 99% 30.05 in 10.0 mi SSE 6.9 mph - N/A   Partly Cloudy
3:58 AM 53.4 °F 53.2 °F 99% 30.05 in 10.0 mi SSE 3.5 mph - N/A   Overcast
4:58 AM 52.2 °F 51.8 °F 99% 30.05 in 10.0 mi South 4.6 mph - N/A   Clear
5:58 AM 52.2 °F 52.0 °F 99% 30.04 in 10.0 mi South 8.1 mph - N/A   Mostly Cloudy
6:58 AM 54.9 °F 51.1 °F 87% 30.04 in 10.0 mi SSE 10.4 mph - N/A   Clear
7:58 AM 55.8 °F 50.5 °F 83% 30.05 in 10.0 mi SSE 3.5 mph - N/A   Partly Cloudy
8:58 AM 55.0 °F 54.5 °F 98% 30.05 in 10.0 mi SSE 9.2 mph - N/A   Clear
9:58 AM 57.6 °F 53.2 °F 85% 30.04 in 10.0 mi SSE 10.4 mph - N/A   Partly Cloudy
10:58 AM 57.6 °F 53.6 °F 87% 30.03 in 10.0 mi SE 8.1 mph - N/A   Scattered Clouds
11:58 AM 57.7 °F 52.9 °F 84% 30.01 in 10.0 mi SSE 12.7 mph - N/A   Overcast
12:58 PM 58.8 °F 53.4 °F 82% 30.00 in 10.0 mi SSE 11.5 mph - N/A   Overcast
1:58 PM 60.3 °F 52.2 °F 75% 29.97 in 10.0 mi SSE 13.8 mph - N/A   Overcast
2:35 PM 59.0 °F 55.4 °F 88% 29.95 in 4.0 mi SSE 20.7 mph - N/A Rain Light Rain
2:36 PM 59.0 °F 55.4 °F 88% 29.95 in 4.0 mi SSE 21.9 mph - N/A Rain Light Rain
2:41 PM 59.0 °F 55.4 °F 88% 29.95 in 2.5 mi SSE 17.3 mph - N/A Rain Light Rain
2:46 PM 57.2 °F 57.2 °F 100% 29.94 in 2.0 mi SSE 16.1 mph - N/A Rain Light Rain
2:51 PM 57.2 °F 57.2 °F 100% 29.94 in 3.0 mi SSE 16.1 mph - N/A Rain Light Rain
2:57 PM 57.2 °F 57.2 °F 100% 29.93 in 7.0 mi SSE 13.8 mph - N/A   Overcast
2:58 PM 57.2 °F 56.8 °F 99% 29.95 in 7.0 mi SSE 12.7 mph - 0.00 in   Overcast
3:18 PM 57.2 °F 57.2 °F 100% 29.93 in 10.0 mi SSE 18.4 mph - N/A   Overcast
3:23 PM 59.0 °F 57.2 °F 94% 29.93 in 8.0 mi SSE 16.1 mph - N/A   Overcast
3:24 PM 59.0 °F 57.2 °F 94% 29.94 in 8.0 mi SSE 16.1 mph - N/A   Overcast
3:29 PM 57.2 °F 57.2 °F 100% 29.94 in 8.0 mi SSE 16.1 mph - N/A   Overcast
3:58 PM 58.3 °F 57.9 °F 99% 29.95 in 10.0 mi SSE 15.0 mph - 0.00 in   Overcast
4:58 PM 58.8 °F 57.7 °F 96% 29.94 in 10.0 mi SSE 12.7 mph - N/A   Mostly Cloudy
5:45 PM 60.8 °F 57.2 °F 88% 29.92 in 8.0 mi South 16.1 mph - N/A Rain Light Rain
5:46 PM 60.8 °F 57.2 °F 88% 29.92 in 7.0 mi South 16.1 mph - N/A Rain Light Rain
5:58 PM 59.4 °F 57.9 °F 95% 29.94 in 10.0 mi SSE 16.1 mph - 0.01 in Rain Light Rain
6:03 PM 59.0 °F 57.2 °F 94% 29.91 in 8.0 mi SSE 15.0 mph - N/A Rain Light Rain
6:12 PM 59.0 °F 59.0 °F 100% 29.91 in 7.0 mi SSE 12.7 mph - N/A   Overcast
6:14 PM 59.0 °F 59.0 °F 100% 29.91 in 9.0 mi SSE 12.7 mph - N/A Rain Light Rain
6:24 PM 59.0 °F 59.0 °F 100% 29.91 in 10.0 mi SSE 12.7 mph - N/A   Overcast
6:32 PM 59.0 °F 59.0 °F 100% 29.91 in 10.0 mi SSE 15.0 mph - N/A Rain Light Rain
6:51 PM 59.0 °F 59.0 °F 100% 29.90 in 10.0 mi SSE 16.1 mph - N/A   Overcast
6:58 PM 59.4 °F 58.6 °F 97% 29.92 in 10.0 mi South 17.3 mph - 0.01 in   Overcast
7:18 PM 60.8 °F 57.2 °F 88% 29.89 in 10.0 mi SSE 15.0 mph - N/A Rain Light Rain
7:28 PM 60.8 °F 57.2 °F 88% 29.90 in 10.0 mi South 13.8 mph - N/A   Overcast
7:58 PM 59.9 °F 58.5 °F 95% 29.90 in 10.0 mi SSE 11.5 mph - 0.00 in   Overcast
8:58 PM 61.2 °F 57.6 °F 88% 29.89 in 10.0 mi South 17.3 mph - N/A   Overcast
9:38 PM 60.8 °F 59.0 °F 94% 29.88 in 10.0 mi South 16.1 mph - N/A Rain Light Rain
9:47 PM 60.8 °F 59.0 °F 94% 29.88 in 10.0 mi SSE 17.3 mph - N/A   Overcast
9:58 PM 60.8 °F 58.5 °F 92% 29.89 in 10.0 mi South 17.3 mph - 0.00 in   Overcast
10:37 PM 59.0 °F 59.0 °F 100% 29.88 in 5.0 mi South 15.0 mph - N/A   Mostly Cloudy
10:41 PM 59.0 °F 59.0 °F 100% 29.88 in 4.0 mi South 13.8 mph - N/A Rain Light Rain
10:46 PM 59.0 °F 59.0 °F 100% 29.88 in 5.0 mi South 13.8 mph - N/A Rain Light Rain
10:51 PM 59.0 °F 59.0 °F 100% 29.88 in 10.0 mi South 13.8 mph - N/A Rain Light Rain
10:58 PM 59.5 °F 59.2 °F 99% 29.89 in 10.0 mi South 11.5 mph - 0.01 in Rain Light Rain
11:23 PM 59.0 °F 59.0 °F 100% 29.86 in 8.0 mi South 16.1 mph - N/A   Overcast
11:27 PM 59.0 °F 59.0 °F 100% 29.85 in 4.0 mi SSE 17.3 mph - N/A Rain Light Rain
11:44 PM 59.0 °F 59.0 °F 100% 29.85 in 9.0 mi SSE 11.5 mph 21.9 mph N/A   Overcast
11:58 PM 59.5 °F 59.2 °F 99% 29.88 in 10.0 mi South 9.2 mph - 0.05 in   Overcast